Orbital elements:
    P/2002 T1 (LINEAR)
Epoch 2002 Oct. 13.0 TT = JDT 2452560.5
T 2002 Oct. 8.08522 TT                                  MPC
q   1.1919821            (2000.0)            P               Q
n   0.14766605     Peri.    1.31151     +0.95763778     -0.27201872
a   3.5449949      Node    15.50376     +0.26088827     +0.68050478
e   0.6637563      Incl.   20.71019     +0.12193113     +0.68038155
P   6.67
Residuals in seconds of arc
020929 608  0.1-  0.6+    021012 352  0.1-  0.2+    021019 048  0.0   0.0
020929 608  0.2+  0.6+    021012 352  0.1-  0.4-    021019 939  0.4-  0.1+
020929 608  0.0   0.6+    021012 352  0.2-  0.5-    021019 939  0.3-  0.2-
021003 704  0.0   0.3+    021012 340  0.3-  0.5+    021019 939  0.2+  0.2-
021003 704  0.1-  0.5+    021012 340  0.2+  0.4-    021020 644  0.2+  0.2-
021003 704  0.3-  0.4+    021012 340  0.6-  0.3+    021020 644  0.2-  0.8+
021003 704  0.3-  0.0     021012 340  0.2-  0.9-    021020 644  0.1+  0.0
021003 704  0.3-  0.0     021012 340  0.0   0.0     021020 048  0.9+  0.0
021003 620  1.3+  0.2-    021012 340  0.8+  0.2-    021020 048  1.9+  1.0+
021003 620  0.0   1.2+    021012 340  0.3+  0.1-    021020 048  1.7+  1.5-
021003 620  0.2-  0.3+    021012 J87  0.2+  1.1+    021020 048  1.0+  0.8-
021003 620  0.3+  1.2-    021012 J87  0.3+  0.6+    021020 048  0.8-  0.7+
021004 J95  0.0   0.1-    021012 J87  0.2-  0.9+    021021 349  0.5+  0.5-
021004 J95  0.0   0.2-    021012 J87  0.2-  1.3+    021021 349  1.0+  0.9-
021004 J95  0.0   0.0     021012 J87  0.1+  0.8+    021021 349  0.4+  0.5-
021004 J95  0.4-  0.1+    021012 J87  0.1-  0.8+    021021 349  0.4+  0.3-
021004 J95  0.0   0.0     021012 J87  0.0   1.3+    021022 448  0.3+  0.4-
021004 J95  0.0   0.1-    021012 J87  0.1+  0.9+    021022 448  0.3+  0.3-
021004 J95  0.0   0.0     021012 J87  0.3-  1.0+    021022 448  0.2+  0.2-
021004 J95  0.0   0.0     021012 J87  0.1-  0.9+    021023 127  0.3-  0.4+
021004 670  0.1+  0.1-    021012 J87  0.2+  0.9+    021023 127  0.1-  0.2+
021004 670  0.2+  0.4-    021012 J87  0.0   1.1+    021023 127  0.4-  0.1+
021004 651  0.1+  0.0     021012 J87  0.1-  1.0+    021023 127  0.4-  0.0
021004 651  0.2+  0.1+    021012 J87  0.0   1.1+    021024 118  0.3-  0.1+
021004 670  0.0   0.1-    021012 J87  0.2-  1.1+    021024 118  0.0   0.3+
021004 651  0.1+  0.4-    021012 J95  0.2+  0.1-    021024 118  0.0   0.1+
021004 048 (2.4-  7.3+)   021012 J95  0.2+  0.0     021024 118  0.1-  0.3+
021004 048 (2.6-  8.9+)   021012 J95  0.2+  0.1-    021025 644  0.1+  0.1+
021004 048 (3.8-  8.7+)   021012 J95  0.2+  0.1-    021025 644  0.1+  0.1+
021004 048 (3.4-  8.9+)   021012 J95  0.0   0.1-    021025 644  0.2+  0.2+
021004 048 (3.3-  7.6+)   021012 204  0.2+  0.1+    021025 213  0.2-  1.0-
021004 J95  0.1-  0.2+    021012 204  0.1+  0.1-    021025 213  0.3-  0.5-
021004 J95  0.5+  0.1+    021012 204  0.0   0.3-    021025 232  0.8-  0.3-
021004 557  0.1-  0.1-    021012 204  0.1+  0.0     021025 232  0.6-  0.3-
021004 557  0.0   0.1-    021012 204  0.3-  0.2-    021025 232  0.7-  0.1-
021004 557  0.1-  0.0     021012 204  0.2-  0.1-    021025 232  0.3-  1.1+
021004 557  0.0   0.1-    021012 204  0.1+  0.0     021025 170  0.5+  0.0
021004 176  0.1-  0.0     021012 204  0.2-  0.2+    021025 170  0.3-  0.2+
021004 176  0.1-  0.1+    021012 204  0.1+  0.1-    021025 170  0.1+  0.1+
021004 176  0.0   0.1+    021012 204  0.2+  0.3+    021025 170  1.1-  0.4-
021004 176  0.1-  0.2+    021012 445 (0.4+  8.4-)   021026 130  0.4-  0.6-
021004 176  0.1-  0.3+    021012 170  0.1-  0.2-    021026 130  0.5+  0.4+
021005 636  0.1+  0.5+    021012 170  0.0   0.0     021026 939  0.4-  0.0
021005 636  0.8-  0.7+    021012 170  0.0   0.2-    021026 939  0.2-  0.4-
021005 636  0.0   0.2+    021012 170  0.2+  0.0     021026 130  0.0   0.4+
021005 636  0.3-  0.1+    021012 445 (2.4- 12.2-)   021026 939  0.2-  0.9-
021005 J95  0.1+  0.0     021013 212  0.3+  0.5+    021026 213  0.9+  0.6-
021005 J95  0.1-  0.4-    021013 212  0.4+  0.3-    021026 213  0.9+  1.3-
021005 J95  0.1+  0.2+    021013 349  0.2+  0.3-    021026 130  0.3+  0.0
021005 J95  0.2+  0.1-    021013 349  0.2+  0.4-    021026 130  0.8-  0.5+
021005 J95  0.2+  0.4-    021013 349  0.1+  0.1-    021026 130  0.2+  0.0
021005 J95  0.1+  0.1+    021013 349  0.1+  0.2-    021026 130  0.2+  0.0
021005 J95  0.2+  0.1-    021013 349  0.1+  0.0     021026 130  0.0   0.2-
021005 J95  0.3-  0.5-    021013 379  0.2-  0.5+    021027 349  0.2-  0.4+
021005 J95  0.1+  0.3+    021013 379  0.7+  1.4-    021027 349  0.4+  0.3+
021005 704  0.6+  0.2-    021013 379  0.9-  0.8-    021027 349  0.4+  0.4-
021005 704  0.5+  0.0     021013 379  0.3+  0.2+    021027 349  0.2+  1.0+
021005 704  0.7+  0.2-    021013 458  1.9-  1.2-    021027 349  0.2+  0.3-
021005 734  0.0   0.0     021013 458 (0.5+  2.3+)   021027 458 (2.0-  3.0-)
021005 734  0.3+  0.2+    021013 233  0.2+  0.7+    021027 458  1.5+  0.8-
021005 342  1.0-  0.2-    021013 233  0.0   0.1-    021028 204  0.3+  0.5+
021005 342  0.5+  0.5-    021013 233  1.3+  0.0     021028 204  0.8+  0.1+
021005 342  0.6-  0.3+    021013 233  1.0-  1.2+    021028 204  0.1+  0.2-
021005 360  0.2+  0.5-    021013 233  0.1+  0.2+    021028 204  0.2-  0.0
021005 360  0.2+  0.6-    021014 367  0.6+  1.1-    021029 704  0.1+  0.5+
021005 360  0.3+  0.5-    021014 367  0.2+  0.3-    021029 704  0.5+  1.3+
021005 349  0.6-  0.5+    021014 367  0.0   0.5-    021029 704  0.1+  0.5+
021005 349  0.8-  0.4+    021014 360  0.2+  0.5-    021029 704  0.1+  0.5+
021005 349  0.6-  0.3-    021014 360  0.1+  0.4-    021029 379  0.9-  1.3-
021005 349  0.3+  1.6+    021014 379  0.1-  0.1+    021029 379  0.4-  0.9-
021005 159  0.5+  0.1-    021014 379  1.4-  0.4+    021029 340  0.5+  0.4-
021005 159  0.5+  0.3-    021014 379  0.3-  0.0     021029 379  0.1-  0.7+
021005 159  0.3-  0.3-    021015 704  0.3-  0.1-    021029 340  0.1+  1.5-
021005 159  0.0   0.3-    021015 704  0.4-  0.5-    021029 340  0.6+  0.2-
021006 921  0.3-  0.6+    021015 704  1.2+  0.8-    021031 939  0.0   0.4+
021006 921  0.2+  1.0+    021015 704  0.3-  0.8-    021031 939  0.0   0.7+
021006 921 (2.1+  1.2-)   021015 704  0.2-  0.8-    021101 939  0.3-  0.1+
021006 921 (2.7-  2.3+)   021015 340  0.8-  0.6-    021101 212 (9.7+  0.5+)
021006 213  1.1+  1.3-    021015 340  0.1+  0.0     021101 212  1.0+  0.6+
021006 213  0.4-  0.1-    021015 340  0.1-  1.1+    021102 785  0.2-  0.4+
021006 213  0.4+  0.1-    021015 340  0.3-  0.1-    021102 785  0.1-  1.7-
021006 213  1.2-  0.1+    021015 340  0.3-  0.1-    021103 349  0.6+  0.0
021006 213  0.1-  0.1+    021015 048  0.2+  0.3-    021103 349  0.5-  0.0
021006 170  0.6+  0.8-    021015 048  0.0   0.0     021103 349  0.5+  0.2-
021006 170  0.2+  0.7-    021015 048  0.4-  0.3-    021103 349  0.5+  0.1-
021006 170  0.4+  1.0-    021015 048  0.4-  0.5-    021104 213  0.3+  1.0+
021006 458 (1.0-  2.4+)   021015 048  0.2+  0.9-    021104 213  1.3+  0.8+
021006 458 (2.3-  0.0 )   021015 939  0.4-  0.3+    021105 360  0.3+  0.1+
021007 704  0.3-  0.1-    021015 939  0.3+  0.0     021105 360  0.1+  0.2+
021007 704  0.6-  0.4-    021015 939  0.6+  0.2-    021105 360  0.4+  0.2+
021007 704  0.4-  0.0     021016 355  0.3+  0.1-    021107 785  0.6-  1.3+
021007 704  0.5-  0.4-    021016 379  1.0+  0.7+    021107 J95  0.7+  0.7-
021007 704  0.5-  0.1-    021016 355  0.5+  0.1-    021107 J95  0.9+  0.5+
021007 213  1.3-  0.0     021016 379  0.4+  0.7+    021109 785  1.3-  0.5-
021007 213  0.1+  0.1+    021016 355  0.2+  0.8-    021109 785  0.9-  0.0
021007 213  0.2-  0.4-    021016 213  0.3-  0.0     021109 785  0.5+  0.1-
021007 213  0.7-  0.2-    021016 213  0.8+  0.2-    021109 785  0.3-  0.3+
021007 213  0.5-  0.2+    021016 213 (0.3+  2.3-)   021109 340  0.6-  0.2+
021008 127  0.5-  0.2-    021017 704  1.6-  0.1-    021109 340  0.8-  1.6-
021008 127  0.3+  0.4-    021017 704  1.7-  0.4-    021109 340  1.4-  1.1+
021008 127  0.1+  0.4-    021017 704  1.6-  0.4-    021109 340 (0.9+  2.1-)
021008 127  0.0   0.7-    021017 704  1.8-  0.3+    021109 127  0.6+  0.5-
021008 118  0.1+  0.1-    021017 170  0.4+  0.0     021109 127  0.4+  0.4-
021008 118  0.3+  0.2+    021017 170  0.4+  0.3+    021110 A46  0.0   0.3+
021008 118  0.4+  0.4-    021017 170  0.6+  0.3+    021110 A46  0.4-  1.1-
021008 118  0.3+  0.2-    021017 170  0.9+  0.4-    021110 A46  0.0   1.1+
021008 118  0.4+  0.1-    021017 170  0.3+  0.3-    021110 A46  0.3-  0.6-
021009 185  0.1+  0.2+    021017 170  0.4+  0.0     021110 A46  0.5-  0.8-
021009 185  0.0   0.2+    021018 048 (1.1-  2.3-)   021110 A46  1.3-  0.4+
021009 185  0.2+  0.0     021018 048 (0.2-  2.4+)   021110 A46  0.9-  0.9+
021009 185  0.0   0.0     021018 048  0.8+  0.3-    021110 A46  0.0   0.9+
021009 185  0.0   0.4+    021018 048  0.1+  0.0     021110 A46  1.0-  0.4-
021009 J95  0.2+  0.3-    021018 048  2.0-  0.0     021110 048  1.9-  0.8+
021009 J95  0.1+  0.3-    021018 J87  0.2+  1.1+    021110 048  0.1-  0.3-
021009 J95  0.2+  0.0     021018 J87  0.2+  0.2+    021110 048  0.1+  0.4-
021009 J95  0.1+  0.0     021018 J87  0.5+  0.4+    021110 048  0.5+  0.2+
021009 J95  0.2+  0.1-    021018 J87  0.4+  0.7+    021110 048  1.4+  1.3-
021010 355  0.1-  0.9-    021018 J87  0.4+  0.9+    021110 561  0.0   0.2-
021010 355  0.8+  0.8-    021018 J87  0.2+  0.9+    021110 561  0.0   0.0
021010 355  0.1+  0.2-    021018 J87  0.4+  0.7+    021110 561  0.1+  0.2+
021010 349  0.0   0.1+    021018 J87  0.6+  0.9+    021111 670  0.7-  0.2+
021010 349  0.1+  0.1-    021018 J87  0.3+  0.5+    021111 670  0.6-  0.3-
021010 349  0.2-  0.3-    021018 213  0.2+  0.1+    021111 670  0.0   0.4+
021010 349  0.1-  0.1+    021018 213  0.4-  0.3+    021112 241  0.0   0.6+
021010 349  0.1-  0.2-    021018 232  0.3-  1.5+    021112 241  0.1-  0.4+
021010 349  0.1-  0.5-    021018 232  0.6-  0.9+    021112 241  0.0   0.4+
021011 360  0.1+  0.0     021018 232  0.5+  1.2+    021112 048  0.1+  1.2-
021011 360  0.1+  0.2-    021018 232  0.6-  1.4+    021112 048  0.4+  0.2-
021011 360  0.3+  0.5-    021019 J95  0.2+  0.1+    021112 048  1.2+  1.2-
021011 213  1.3+  1.0-    021019 J95  0.2+  0.0     021112 048  1.2+  0.0
021011 213  0.6+  0.7+    021019 J95  0.2+  0.1+    021112 048  0.4+  0.1-
021011 445 (2.2+ 11.6-)   021019 J95  0.2+  0.1+    021112 048  0.9+  0.1-
021011 445 (1.7+  8.6-)   021019 048 (4.1-  0.8-)   021117 704  1.2-  0.4+
021011 445 (4.0+  5.0-)   021019 048 (5.7-  2.0-)   021117 704  0.1-  0.6+
021012 232 (2.5-  0.7-)   021019 504  1.0+  1.3+    021117 704  0.9-  0.7+
021012 232  1.8-  0.1-    021019 504  0.3+  1.0-    021117 704  0.8-  0.1-
021012 232  1.3-  1.8+    021019 504  0.2-  0.2+    021128 360  0.2-  0.1-
021012 704  0.4-  0.5-    021019 176  0.4-  0.4-    021128 360  0.3-  0.0
021012 704  0.4-  0.0     021019 176  0.2-  0.5-    021128 360  0.5-  0.0
021012 704  0.8-  0.1+    021019 176  0.1-  0.5-    021128 J95  0.3-  0.3+
021012 704  0.8-  0.0     021019 504  0.3-  0.3-    021128 J95  0.1+  0.5-
021012 704  0.9-  0.3+    021019 504  0.2+  0.4-    021128 J95  0.7+  0.5+
021012 367  0.3-  0.6-    021019 176  0.0   0.5-    030104 J95  0.4-  0.8-
021012 367  0.2+  0.3-    021019 504  0.3+  0.4-    030104 J95  0.5+  0.5+
021012 367  0.2+  0.0     021019 176  0.1+  0.7-    030105 J95  0.2-  0.5-
021012 367  0.2-  0.2+    021019 504  0.1+  0.2+    030105 J95  0.9-  0.4-
021012 367  0.1-  0.4-    021019 504  0.1+  0.2-

